Flag for U.S.A. Weather past 2 weeks in Modesto, California, U.S.A.

Now
85 °F

Sunny.


Feels Like: 84 °F
Forecast: 65 / 94 °F
Wind: 14 mph from North

Location: Modesto City-County-Sham Field

Current Time: Jul 23, 2014 at 5:40:20 PM

Latest Report: Jul 23, 2014 at 4:53 PM


Visibility: 10 mi

Pressure: 29.99 "Hg

Humidity: 37%

Dew point: 56 °F

Location of ModestoLocation

Historic Weather in Modesto — Graph

°F

Modesto temperature yesterday

Maximum temperature yesterday: 87 °F (at 4:53 PM)
Minimum temperature yesterday: 63 °F (at 5:53 AM)
Average temperature yesterday: 71 °F

Past Weeks' High & Low Weather Summary

 TemperatureHumidityPressure
High99 °F (Jul 8, 4:53 PM)84% (Jul 12, 5:53 AM)30.12 "Hg (Jul 12, 5:53 AM)
Low59 °F (Jul 12, 5:53 AM)20% (Jul 8, 4:53 PM)29.75 "Hg (Jul 9, 6:53 PM)
Average76 °F53%29.91 "Hg
* Reported Jul 8 3:53 PM — Jul 23 3:53 PM, Modesto, Weather by CustomWeather, © 2014

Note: Actual official high and low records may vary slightly from our data, if they occured in-between our weather recording intervals... More about our weather records

Advertising

Modesto weather history for previous 24 hours

 ConditionsComfort  
Time TempWeatherWind HumidityBarometerVisibility
3:53 PM
Jul 23
85 °FSunny.13 mph37%30.01 "Hg10 mi
2:53 PM84 °FSunny.13 mph36%30.04 "Hg10 mi
1:53 PM82 °FSunny.9 mph38%30.07 "Hg10 mi
12:53 PM80 °FSunny.12 mph42%30.09 "Hg10 mi
11:53 AM76 °FSunny.5 mph50%30.11 "Hg10 mi
10:53 AM75 °FSunny.10 mph50%30.11 "Hg10 mi
9:53 AM71 °FSunny.9 mph59%30.12 "Hg10 mi
8:53 AM69 °FSunny.10 mph63%30.12 "Hg10 mi
7:53 AM67 °FSunny.10 mph71%30.12 "Hg10 mi
6:53 AM63 °FClear.8 mph81%30.10 "Hg10 mi
5:53 AM63 °FClear.8 mph81%30.10 "Hg10 mi
4:53 AM63 °FClear.8 mph84%30.09 "Hg10 mi
3:53 AM63 °FClear.9 mph84%30.08 "Hg10 mi
2:53 AM64 °FClear.10 mph78%30.09 "Hg10 mi
9:53 PM
Jul 22
70 °FClear.15 mph61%30.03 "Hg10 mi
8:53 PM73 °FSunny.17 mph57%30.00 "Hg10 mi
7:53 PM78 °FSunny.17 mph50%29.98 "Hg10 mi
6:53 PM84 °FSunny.15 mph41%29.96 "Hg10 mi
5:53 PM87 °FSunny.8 mph39%29.95 "Hg10 mi
Weather by CustomWeather, © 2014

See weather overviewHow to use our weather pages